TimeCST,TemperatureF,Dew PointF,Humidity,Sea Level PressureIn,VisibilityMPH,Wind Direction,Wind SpeedMPH,Gust SpeedMPH,PrecipitationIn,Events,Conditions,WindDirDegrees,DateUTC
12:14 AM,15.8,3.2,58,30.05,10.0,South,11.5,17.3,N/A,,Overcast,170,2014-02-12 06:14:00
12:34 AM,15.8,3.2,58,30.05,10.0,South,10.4,-,N/A,,Overcast,170,2014-02-12 06:34:00
12:54 AM,15.8,3.2,58,30.05,10.0,South,10.4,-,N/A,,Overcast,170,2014-02-12 06:54:00
1:14 AM,15.8,5.0,62,30.06,10.0,South,8.1,-,N/A,,Overcast,180,2014-02-12 07:14:00
1:34 AM,17.6,6.8,63,30.06,3.0,South,12.7,19.6,N/A,Snow,Light Snow,190,2014-02-12 07:34:00
1:54 AM,17.6,8.6,68,30.05,1.8,South,10.4,-,N/A,Snow,Light Snow,190,2014-02-12 07:54:00
2:14 AM,17.6,8.6,68,30.05,3.0,South,10.4,18.4,N/A,Snow,Light Snow,190,2014-02-12 08:14:00
2:34 AM,17.6,8.6,68,30.05,7.0,South,10.4,-,N/A,,Overcast,180,2014-02-12 08:34:00
2:54 AM,17.6,8.6,68,30.05,10.0,South,9.2,16.1,N/A,,Overcast,190,2014-02-12 08:54:00
3:14 AM,17.6,8.6,68,30.04,2.5,South,8.1,-,N/A,Snow,Light Snow,190,2014-02-12 09:14:00
3:34 AM,17.6,10.4,73,30.05,1.2,South,9.2,-,N/A,Snow,Light Snow,190,2014-02-12 09:34:00
3:53 AM,17.6,10.4,73,30.05,1.2,South,8.1,-,N/A,Snow,Light Snow,190,2014-02-12 09:53:00
4:14 AM,17.6,10.4,73,30.04,1.2,South,8.1,-,N/A,Snow,Light Snow,190,2014-02-12 10:14:00
4:34 AM,17.6,10.4,73,30.04,1.2,SSW,9.2,-,N/A,Snow,Light Snow,200,2014-02-12 10:34:00
4:53 AM,17.6,10.4,73,30.05,1.5,South,5.8,-,N/A,Snow,Light Snow,190,2014-02-12 10:53:00
5:14 AM,17.6,10.4,73,30.05,1.8,South,5.8,-,N/A,Snow,Light Snow,190,2014-02-12 11:14:00
5:34 AM,17.6,10.4,73,30.06,2.5,SSW,4.6,-,N/A,Snow,Light Snow,200,2014-02-12 11:34:00
5:54 AM,17.6,10.4,73,30.06,1.2,SSW,3.5,-,N/A,Snow,Light Snow,200,2014-02-12 11:54:00
6:14 AM,17.6,10.4,73,30.06,2.5,South,4.6,-,N/A,Snow,Light Snow,180,2014-02-12 12:14:00
6:33 AM,17.6,10.4,73,30.06,5.0,SSW,3.5,-,N/A,Snow,Light Snow,200,2014-02-12 12:33:00
6:54 AM,17.6,10.4,73,30.06,7.0,South,8.1,-,N/A,,Mostly Cloudy,180,2014-02-12 12:54:00
7:14 AM,17.6,10.4,73,30.06,7.0,SSW,4.6,-,N/A,,Overcast,200,2014-02-12 13:14:00
7:34 AM,17.6,10.4,73,30.06,10.0,South,4.6,-,N/A,,Overcast,190,2014-02-12 13:34:00
7:54 AM,17.6,10.4,73,30.06,10.0,Calm,Calm,-,N/A,,Overcast,0,2014-02-12 13:54:00
8:14 AM,17.6,10.4,73,30.07,10.0,South,3.5,-,N/A,,Overcast,190,2014-02-12 14:14:00
8:34 AM,17.6,10.4,73,30.07,10.0,South,3.5,-,N/A,,Overcast,180,2014-02-12 14:34:00
8:54 AM,19.4,10.4,68,30.08,10.0,SSW,3.5,-,N/A,,Overcast,200,2014-02-12 14:54:00
9:13 AM,19.4,10.4,68,30.08,7.0,SSW,4.6,-,N/A,,Mostly Cloudy,200,2014-02-12 15:13:00
9:34 AM,19.4,10.4,68,30.08,7.0,SSW,3.5,-,N/A,,Mostly Cloudy,200,2014-02-12 15:34:00
9:54 AM,19.4,10.4,68,30.09,10.0,Calm,Calm,-,N/A,,Mostly Cloudy,0,2014-02-12 15:54:00
10:13 AM,19.4,10.4,68,30.08,10.0,Calm,Calm,-,N/A,,Mostly Cloudy,0,2014-02-12 16:13:00
10:34 AM,21.2,10.4,63,30.09,10.0,Calm,Calm,-,N/A,,Scattered Clouds,0,2014-02-12 16:34:00
10:54 AM,21.2,12.2,68,30.08,7.0,Calm,Calm,-,N/A,,Clear,0,2014-02-12 16:54:00
11:14 AM,23.0,12.2,63,30.09,7.0,Calm,Calm,-,N/A,,Scattered Clouds,0,2014-02-12 17:14:00
11:34 AM,24.8,12.2,59,30.06,7.0,Calm,Calm,-,N/A,,Scattered Clouds,0,2014-02-12 17:34:00
11:54 AM,24.8,12.2,59,30.07,7.0,Calm,Calm,-,N/A,,Scattered Clouds,0,2014-02-12 17:54:00
12:14 PM,24.8,12.2,59,30.07,7.0,Calm,Calm,-,0.03,,Scattered Clouds,0,2014-02-12 18:14:00
12:34 PM,24.8,12.2,59,30.05,7.0,Calm,Calm,-,0.04,,Mostly Cloudy,0,2014-02-12 18:34:00
12:54 PM,26.6,12.2,55,30.05,7.0,Calm,Calm,-,0.04,,Mostly Cloudy,0,2014-02-12 18:54:00
1:14 PM,26.6,14.0,59,30.04,7.0,Calm,Calm,-,N/A,,Mostly Cloudy,0,2014-02-12 19:14:00
1:34 PM,24.8,14.0,64,30.04,7.0,Calm,Calm,-,N/A,,Mostly Cloudy,0,2014-02-12 19:34:00
1:54 PM,24.8,14.0,64,30.04,7.0,SSW,3.5,-,N/A,,Overcast,200,2014-02-12 19:54:00
2:14 PM,24.8,14.0,64,30.04,7.0,SSW,4.6,-,N/A,,Overcast,210,2014-02-12 20:14:00
2:34 PM,24.8,14.0,64,30.03,7.0,South,4.6,-,N/A,,Mostly Cloudy,170,2014-02-12 20:34:00
2:54 PM,24.8,14.0,64,30.02,7.0,SSE,6.9,-,N/A,,Mostly Cloudy,150,2014-02-12 20:54:00
3:14 PM,24.8,14.0,64,30.01,7.0,South,4.6,-,N/A,,Mostly Cloudy,170,2014-02-12 21:14:00
3:34 PM,24.8,14.0,64,30.00,7.0,SSE,4.6,-,N/A,,Mostly Cloudy,150,2014-02-12 21:34:00
3:53 PM,24.8,14.0,64,29.99,5.0,SSE,4.6,-,N/A,,Haze,160,2014-02-12 21:53:00
4:14 PM,24.8,14.0,64,29.98,7.0,SSE,5.8,-,N/A,,Mostly Cloudy,150,2014-02-12 22:14:00
4:34 PM,24.8,15.8,69,29.98,7.0,South,6.9,-,N/A,,Overcast,170,2014-02-12 22:34:00
4:54 PM,24.8,15.8,69,29.96,7.0,SSE,4.6,-,N/A,,Overcast,160,2014-02-12 22:54:00
5:14 PM,23.0,14.0,68,29.96,7.0,SSE,6.9,-,N/A,,Overcast,150,2014-02-12 23:14:00
5:34 PM,23.0,15.8,74,29.96,5.0,South,3.5,-,N/A,,Haze,170,2014-02-12 23:34:00
5:54 PM,23.0,15.8,74,29.95,7.0,South,5.8,-,N/A,,Overcast,170,2014-02-12 23:54:00
6:14 PM,21.2,15.8,80,29.95,7.0,SSE,4.6,-,N/A,,Overcast,160,2014-02-13 00:14:00
6:33 PM,21.2,14.0,74,29.96,7.0,South,8.1,-,N/A,,Overcast,170,2014-02-13 00:33:00
6:54 PM,21.2,14.0,74,29.95,7.0,South,6.9,-,N/A,,Overcast,170,2014-02-13 00:54:00
7:14 PM,21.2,14.0,74,29.94,5.0,South,5.8,-,N/A,,Haze,170,2014-02-13 01:14:00
7:33 PM,21.2,14.0,74,29.94,7.0,South,9.2,-,N/A,,Overcast,170,2014-02-13 01:33:00
7:54 PM,21.2,14.0,74,29.93,5.0,South,5.8,-,N/A,,Haze,170,2014-02-13 01:54:00
8:14 PM,21.2,14.0,74,29.93,5.0,South,8.1,-,N/A,,Haze,170,2014-02-13 02:14:00
8:34 PM,21.2,14.0,74,29.92,7.0,South,6.9,-,N/A,,Overcast,170,2014-02-13 02:34:00
8:54 PM,21.2,12.2,68,29.91,7.0,SSE,9.2,-,N/A,,Overcast,160,2014-02-13 02:54:00
9:14 PM,19.4,12.2,74,29.91,5.0,South,6.9,-,N/A,,Haze,170,2014-02-13 03:14:00
9:34 PM,19.4,12.2,74,29.89,7.0,South,10.4,-,N/A,,Overcast,170,2014-02-13 03:34:00
9:54 PM,19.4,12.2,74,29.86,5.0,SSE,12.7,-,N/A,,Haze,160,2014-02-13 03:54:00
10:14 PM,19.4,12.2,74,29.85,5.0,South,13.8,-,N/A,,Haze,170,2014-02-13 04:14:00
10:34 PM,19.4,10.4,68,29.83,7.0,SSE,12.7,17.3,N/A,,Scattered Clouds,160,2014-02-13 04:34:00
10:54 PM,17.6,10.4,73,29.83,7.0,South,9.2,-,N/A,,Clear,170,2014-02-13 04:54:00
11:13 PM,17.6,10.4,73,29.83,7.0,South,6.9,-,N/A,,Clear,180,2014-02-13 05:13:00
11:34 PM,17.6,8.6,68,29.82,7.0,South,6.9,-,N/A,,Clear,170,2014-02-13 05:34:00
11:54 PM,17.6,8.6,68,29.82,7.0,South,8.1,-,N/A,,Mostly Cloudy,180,2014-02-13 05:54:00